Temp
87 88 87 88 87 87 88 87 87 89 88 85 84 83 82 83 84 85 84 84 84 81 79 78 78 77 77 79 79 78 77 77 77 75 77 81 82 82 84 87 86 85 85
82 83 84 84 83 83 83 84 85 85 87 89 87 85 84 85 85 86 84 83 82 79 78 75 74 72 71 70 72 73 72 72 74 70 70 68 78 84 85 86 85 83 84
77 79 79 80 81 80 78 79 80 82 82 84 89 86 83 83 83 84 85 84 81 78 76 75 75 70 70 70 70 72 71 66 72 72 68 66 69 81 86 84 84 83 82
76 78 77 77 78 77 78 77 75 78 81 83 85 82 80 78 82 85 86 86 81 78 75 75 75 73 72 70 70 70 70 70 67 67 68 72 75 74 75 85 84 81 80
74 74 75 77 78 77 75 74 72 75 78 78 80 81 79 81 83 86 84 82 78 77 77 75 75 76 75 74 70 70 70 70 67 67 68 69 72 72 68 68 77 81 82
72 74 75 76 76 77 75 73 68 70 76 76 76 78 77 77 80 82 78 77 75 77 76 77 77 77 76 75 74 73 69 67 67 68 67 67 69 70 69 64 68 66 75
71 72 72 73 73 73 73 72 64 64 67 74 76 78 77 78 79 81 77 75 72 65 66 69 66 66 68 69 66 63 63 63 61 62 62 62 60 61 66 65 64 67 74
70 71 71 71 72 72 72 70 62 61 62 64 64 68 76 77 71 62 58 56 54 54 56 55 55 55 56 59 60 59 59 58 58 59 61 61 60 59 60 58 56 56 63
69 70 71 70 70 71 71 70 59 60 60 59 59 57 57 56 55 55 55 54 54 55 55 56 56 55 53 53 56 57 57 61 62 61 62 63 63 58 57 57 56 53 53
68 69 70 69 70 70 71 72 61 57 58 58 57 55 54 54 53 53 52 53 53 54 54 55 53 53 52 52 54 56 59 59 60 61 60 60 60 60 60 57 54 53 52
66 67 67 69 70 70 70 72 64 57 56 56 56 54 53 53 52 51 52 52 52 53 52 52 51 51 52 53 53 55 56 54 55 57 57 56 58 59 59 58 55 52 52
65 67 67 67 67 67 68 68 65 57 57 55 56 55 55 55 54 54 54 54 52 53 53 52 50 50 51 52 52 52 52 52 52 54 54 54 57 56 57 58 54 49 51
64 65 65 65 65 65 65 66 66 56 57 55 52 50 53 50 49 50 51 52 49 47 47 49 49 48 49 50 51 52 52 52 52 53 52 52 52 51 52 54 53 52 51
62 63 63 63 64 64 64 65 63 59 55 54 51 48 47 49 47 51 48 45 45 44 43 44 45 46 47 49 51 50 50 52 49 47 45 45 46 45 46 49 46 47 46
61 61 61 62 62 62 63 60 60 56 53 51 48 48 46 46 46 46 45 43 43 44 47 45 43 43 41 41 45 48 46 46 46 45 47 45 44 41 41 44 44 44 43
60 61 61 61 60 61 61 56 55 52 50 47 45 46 46 45 44 43 43 43 42 42 42 41 41 40 41 37 38 42 43 44 43 43 44 45 44 42 41 40 39 39 41
59 60 60 60 60 60 58 52 49 49 47 45 45 45 43 42 41 40 39 38 38 39 38 36 37 36 35 35 37 38 46 45 44 46 45 47 49 41 43 41 40 41 39
59 60 60 59 60 59 54 49 48 45 44 42 41 41 39 37 37 38 38 39 39 38 39 38 38 36 36 34 35 37 45 45 45 45 45 44 44 38 36 39 43 45 46
61 61 61 60 59 53 52 46 43 41 39 37 36 36 36 35 35 35 36 36 34 32 32 35 37 35 33 33 33 40 43 42 42 44 43 40 39 34 33 37 38 40 43
62 61 60 59 55 51 48 42 39 38 35 35 35 35 35 34 33 33 33 34 33 34 36 36 37 35 36 32 32 35 41 39 41 42 42 36 34 32 32 35 37 37 38
61 59 58 53 48 47 44 38 36 35 36 36 36 35 34 33 33 33 34 33 36 37 37 37 37 38 34 36 32 31 37 35 37 38 37 39 31 30 31 31 37 32 34
59 56 53 46 45 43 40 35 34 35 34 34 34 33 33 32 32 32 32 33 33 33 35 36 36 37 38 32 32 31 30 30 35 34 35 34 29 30 30 32 30 30 32
55 53 49 42 39 39 37 33 32 34 33 33 31 31 32 32 34 32 32 32 33 33 33 33 33 34 35 34 32 31 31 30 31 32 30 29 30 30 32 31 30 31 32
50 47 39 35 33 34 33 32 32 32 32 31 31 32 32 33 34 32 32 30 30 30 30 30 30 31 31 30 31 31 32 30 30 28 31 30 30 30 31 31 31 31 30
42 38 35 33 31 32 32 32 32 32 31 32 31 31 32 31 31 30 29 28 27 27 28 28 29 27 26 25 27 26 27 27 26 27 30 30 28 28 29 30 30 30 30
37 34 32 31 30 31 31 31 32 33 32 31 32 32 32 32 32 29 27 27 27 26 25 25 26 28 25 25 25 25 25 25 27 29 28 27 26 25 26 26 26 28 27
MSLP
1006.04 1006.06 1005.92 1005.63 1005.35 1004.95 1004.54 1004.43 1003.92 1003.50 1003.65 1003.95 1003.99 1003.93 1003.51 1003.62 1004.18 1004.57 1005.02 1005.59 1005.92 1006.76 1007.62 1008.22 1008.67 1009.34 1009.98 1010.08 1010.71 1010.88 1010.79 1011.14 1011.24 1011.20 1010.67 1010.22 1009.81 1009.57 1009.00 1008.66 1008.74 1008.80 1008.93
1006.86 1006.53 1006.30 1006.04 1005.81 1005.50 1005.14 1004.71 1004.32 1003.82 1003.18 1002.63 1002.48 1002.74 1002.75 1002.70 1002.90 1003.36 1003.83 1004.50 1005.27 1005.95 1006.41 1006.87 1007.38 1007.51 1008.30 1009.09 1009.61 1010.23 1010.34 1010.72 1010.90 1010.70 1010.41 1009.78 1008.70 1008.00 1007.87 1007.77 1008.03 1008.22 1008.45
1007.67 1007.22 1006.93 1006.74 1006.33 1005.89 1005.69 1005.14 1004.46 1003.78 1003.21 1002.53 1001.56 1001.81 1002.25 1002.22 1001.93 1001.81 1002.26 1003.15 1004.10 1005.05 1005.91 1006.43 1006.69 1007.12 1007.60 1007.85 1007.77 1008.53 1009.41 1009.54 1009.59 1010.15 1010.16 1009.61 1008.24 1006.64 1006.61 1006.89 1007.32 1007.49 1007.83
1008.54 1008.09 1007.63 1007.13 1006.70 1006.47 1006.10 1005.58 1004.85 1003.85 1002.88 1002.12 1001.06 1000.96 1001.07 1001.20 1001.06 1001.40 1001.59 1002.11 1003.41 1004.14 1005.12 1005.65 1005.89 1006.15 1006.67 1006.85 1006.97 1007.07 1008.45 1008.62 1008.84 1009.85 1009.85 1009.68 1008.56 1007.46 1006.66 1006.02 1006.63 1007.24 1007.45
1009.38 1008.84 1008.47 1008.10 1007.51 1006.99 1006.53 1006.07 1005.37 1004.11 1002.77 1001.99 1001.21 1000.44 1000.41 1000.78 1000.86 1000.72 1000.80 1001.22 1002.52 1003.80 1003.93 1004.62 1004.79 1004.96 1005.65 1006.14 1006.06 1006.58 1007.17 1007.64 1008.03 1008.79 1009.44 1009.35 1008.92 1008.65 1008.19 1006.84 1006.60 1006.68 1006.59
1009.93 1009.67 1009.36 1008.78 1007.96 1007.43 1006.62 1006.10 1005.55 1004.48 1003.01 1001.83 1001.00 1000.25 1000.10 1000.40 1000.49 1000.43 1000.73 1001.46 1002.39 1002.83 1003.09 1003.66 1004.37 1004.84 1005.47 1005.84 1005.89 1006.10 1006.28 1006.68 1006.63 1008.48 1008.98 1009.06 1008.61 1008.74 1008.33 1008.42 1007.72 1007.48 1006.92
1010.31 1009.93 1009.39 1008.86 1008.25 1007.56 1007.01 1006.41 1006.24 1005.07 1003.91 1002.31 1001.13 1000.39 1000.34 1000.37 1000.57 1000.38 1000.81 1001.22 1001.91 1002.57 1003.00 1003.62 1004.70 1005.44 1005.54 1005.92 1005.66 1005.33 1006.46 1006.80 1006.81 1008.39 1009.05 1009.20 1009.57 1009.45 1009.24 1009.43 1008.67 1007.93 1007.14
1010.72 1010.29 1009.93 1009.51 1008.87 1008.25 1007.70 1007.07 1006.92 1006.02 1005.12 1003.91 1002.74 1001.57 1000.68 1000.74 1001.16 1001.75 1002.24 1002.70 1003.29 1003.97 1004.19 1004.49 1004.97 1005.41 1006.41 1007.64 1004.44 1004.99 1007.25 1007.28 1008.54 1008.88 1009.33 1009.65 1010.19 1010.32 1010.17 1010.46 1010.48 1009.34 1008.10
1010.89 1010.55 1010.17 1009.76 1009.18 1008.51 1007.96 1007.49 1007.53 1006.85 1006.00 1005.41 1004.46 1003.54 1002.87 1002.92 1003.28 1003.43 1003.92 1004.22 1004.69 1005.06 1004.97 1005.11 1005.03 1005.24 1007.27 1006.58 1008.42 1007.85 1008.42 1009.13 1009.28 1009.47 1009.95 1009.80 1009.85 1011.22 1011.38 1011.03 1010.99 1010.53 1009.02
1011.16 1010.80 1010.34 1009.93 1009.57 1008.99 1008.25 1007.58 1008.10 1007.81 1007.35 1006.66 1005.73 1005.38 1004.68 1004.69 1004.76 1004.84 1005.09 1005.46 1005.86 1006.26 1005.97 1006.41 1006.65 1007.23 1007.06 1007.43 1009.21 1010.20 1010.87 1010.60 1010.57 1010.70 1010.57 1010.20 1010.56 1011.00 1011.41 1011.43 1011.32 1011.29 1010.42
1011.27 1010.98 1010.81 1010.44 1009.82 1009.43 1008.77 1007.72 1008.11 1008.22 1008.07 1007.53 1007.07 1006.65 1006.10 1006.76 1006.38 1006.26 1006.73 1006.83 1006.68 1007.52 1007.77 1007.58 1007.90 1007.94 1008.46 1009.49 1009.89 1010.71 1011.92 1011.46 1011.71 1011.27 1010.99 1010.75 1010.65 1011.07 1011.38 1011.71 1011.80 1011.72 1011.29
1011.76 1011.41 1011.10 1010.76 1010.22 1009.62 1009.01 1008.38 1008.20 1008.51 1008.39 1008.27 1008.03 1007.86 1007.43 1007.52 1007.37 1007.34 1007.77 1008.56 1008.35 1008.22 1009.16 1009.33 1008.97 1008.70 1009.50 1010.07 1011.06 1011.10 1011.49 1012.37 1011.95 1011.54 1011.18 1010.72 1011.15 1011.75 1012.05 1011.73 1011.68 1012.55 1011.81
1011.79 1011.63 1011.23 1010.89 1010.47 1009.91 1009.29 1008.85 1008.25 1008.85 1008.74 1009.03 1008.93 1008.91 1008.79 1008.54 1008.84 1009.19 1008.20 1010.11 1010.17 1010.16 1010.12 1010.61 1010.83 1010.07 1009.90 1011.74 1011.50 1012.45 1012.63 1012.50 1011.91 1011.71 1011.22 1011.83 1012.48 1013.12 1012.97 1012.11 1012.16 1012.93 1011.71
1012.04 1011.72 1011.40 1011.07 1010.73 1010.26 1009.60 1008.98 1008.66 1008.98 1009.24 1009.51 1009.97 1010.19 1009.76 1010.65 1010.59 1010.04 1011.16 1010.76 1011.15 1012.08 1011.67 1012.09 1011.66 1012.27 1011.89 1011.93 1012.11 1012.78 1012.40 1012.12 1012.44 1013.17 1013.64 1013.40 1013.69 1014.14 1013.69 1013.07 1013.69 1013.46 1012.44
1012.01 1011.89 1011.61 1011.28 1011.01 1010.54 1009.81 1009.61 1008.87 1009.14 1009.71 1010.20 1010.62 1010.92 1011.32 1011.29 1012.14 1012.60 1012.12 1011.90 1011.77 1012.56 1012.75 1012.98 1013.75 1014.08 1013.63 1013.73 1012.77 1013.67 1014.02 1013.21 1013.33 1014.26 1014.46 1014.92 1014.98 1014.33 1014.71 1014.26 1014.19 1013.36 1013.20
1011.97 1011.88 1011.74 1011.56 1011.37 1011.03 1010.55 1010.31 1009.65 1010.17 1010.62 1011.00 1011.48 1011.85 1011.90 1011.97 1012.33 1013.58 1013.11 1012.95 1013.52 1013.75 1014.44 1015.00 1014.82 1015.15 1014.96 1015.19 1015.22 1015.06 1015.33 1015.17 1014.20 1014.74 1015.10 1015.53 1014.97 1014.98 1014.81 1014.80 1014.03 1014.28 1013.70
1012.04 1011.90 1011.96 1012.03 1011.90 1011.66 1011.73 1011.81 1011.67 1011.79 1012.01 1012.25 1012.58 1012.85 1013.08 1013.94 1014.06 1014.56 1014.53 1014.55 1014.21 1014.97 1015.90 1016.72 1016.78 1016.47 1015.99 1016.68 1016.22 1015.95 1015.79 1015.27 1015.55 1015.25 1015.20 1014.78 1014.17 1015.05 1014.95 1014.36 1014.39 1013.84 1013.22
1012.31 1012.17 1012.26 1012.37 1012.35 1012.57 1012.82 1013.14 1012.94 1013.02 1013.19 1013.51 1013.95 1014.39 1014.68 1015.11 1015.32 1015.05 1015.43 1015.45 1015.83 1016.23 1016.94 1017.65 1017.38 1017.30 1017.78 1017.96 1017.93 1017.00 1016.06 1015.63 1015.79 1015.73 1015.70 1015.44 1014.84 1015.62 1015.78 1015.27 1013.96 1013.15 1012.41
1012.46 1012.43 1012.55 1012.73 1012.78 1013.48 1013.77 1014.13 1014.27 1014.30 1014.49 1014.94 1015.33 1015.83 1016.09 1016.19 1016.46 1016.24 1016.72 1017.18 1017.27 1017.63 1018.22 1018.24 1018.19 1018.39 1018.59 1018.90 1018.69 1017.15 1016.49 1016.39 1016.19 1016.48 1016.34 1016.32 1016.01 1016.41 1015.97 1015.13 1013.64 1012.75 1012.15
1012.56 1012.60 1012.95 1013.25 1013.72 1014.16 1014.76 1015.14 1015.49 1015.56 1015.67 1016.09 1016.41 1016.78 1016.99 1017.00 1016.98 1017.27 1017.59 1017.86 1018.04 1018.30 1018.79 1018.86 1018.73 1019.13 1018.83 1019.32 1018.88 1018.19 1017.54 1017.20 1016.73 1016.20 1015.95 1016.39 1016.72 1016.62 1016.03 1015.11 1013.76 1012.56 1012.61
1012.67 1013.07 1013.52 1014.34 1015.07 1015.32 1015.82 1016.31 1016.83 1016.91 1017.28 1017.34 1017.53 1017.75 1017.97 1018.03 1018.18 1018.40 1018.84 1018.82 1018.84 1018.78 1018.94 1019.06 1019.36 1019.29 1019.46 1019.46 1019.72 1019.26 1018.68 1018.29 1017.00 1016.84 1016.78 1016.49 1016.83 1016.50 1015.93 1015.38 1014.25 1014.44 1014.00
1012.97 1013.80 1014.34 1015.50 1016.22 1016.52 1016.96 1017.55 1017.94 1018.40 1018.51 1018.64 1018.74 1018.90 1019.21 1019.31 1019.49 1019.50 1020.26 1020.15 1019.95 1019.61 1019.51 1019.60 1019.77 1019.76 1019.58 1020.18 1020.43 1019.95 1019.62 1019.25 1018.07 1017.98 1017.62 1017.35 1017.15 1016.37 1015.69 1015.45 1015.18 1014.40 1013.53
1013.91 1014.55 1015.53 1016.74 1017.40 1017.80 1018.25 1018.61 1019.24 1019.49 1019.62 1019.76 1020.09 1020.26 1020.49 1020.72 1020.78 1020.65 1021.16 1020.83 1020.54 1020.58 1020.64 1020.53 1020.43 1020.26 1020.59 1020.61 1020.58 1020.36 1019.96 1019.58 1019.22 1019.06 1018.70 1018.04 1017.26 1016.71 1015.99 1015.62 1014.90 1014.13 1013.19
1015.07 1015.89 1017.05 1018.03 1018.66 1019.21 1019.56 1019.88 1020.23 1020.43 1020.59 1020.88 1021.08 1021.37 1021.69 1022.00 1021.98 1022.04 1022.13 1021.75 1021.74 1021.97 1022.19 1021.90 1021.44 1021.39 1021.62 1021.91 1021.60 1021.18 1020.67 1020.31 1019.75 1019.40 1018.44 1018.02 1017.56 1016.88 1016.25 1015.52 1014.64 1013.99 1013.36
1016.52 1017.49 1018.27 1019.16 1019.79 1020.28 1020.72 1021.02 1021.28 1021.32 1021.59 1021.97 1022.15 1022.27 1022.59 1022.96 1023.08 1023.38 1023.46 1023.62 1024.25 1024.44 1023.88 1022.93 1022.90 1023.18 1023.22 1023.50 1023.05 1022.67 1021.85 1021.46 1020.89 1019.91 1018.77 1018.05 1017.42 1016.64 1015.99 1015.27 1014.64 1013.97 1013.32
1017.82 1018.86 1019.65 1020.22 1020.88 1021.32 1021.80 1022.08 1022.25 1022.19 1022.50 1022.96 1023.13 1023.33 1023.53 1023.70 1023.92 1024.29 1024.80 1025.32 1025.44 1025.65 1025.31 1025.08 1025.09 1024.65 1024.75 1024.35 1024.02 1023.51 1022.69 1022.18 1021.06 1019.55 1018.86 1018.18 1017.64 1017.04 1016.35 1015.59 1014.72 1013.94 1013.27
Wind_Speed
15 15 16 17 18 16 13 13 14 14 12 14 14 14 16 14 13 15 18 18 16 18 17 13 13 10 10 10 9 10 10 10 9 9 11 12 14 15 13 11 10 12 11
17 17 17 18 18 17 17 17 16 14 14 14 13 13 13 14 14 14 16 19 18 18 17 16 12 16 13 12 13 11 7 7 7 7 7 6 9 11 13 9 9 10 8
17 19 21 20 19 19 19 20 21 19 14 16 13 13 12 12 13 14 14 16 20 19 18 17 13 13 12 12 13 12 17 10 9 12 7 5 8 6 7 11 9 8 7
19 18 21 23 22 21 20 20 21 21 16 15 14 17 14 15 12 13 12 13 17 17 18 19 18 17 12 13 13 13 13 9 9 4 8 16 11 6 7 6 4 6 8
18 21 22 22 22 21 19 18 22 22 19 16 17 13 17 13 12 11 14 12 10 17 22 19 19 17 13 15 12 12 14 10 6 7 6 10 10 9 6 11 8 7 7
18 19 20 21 21 23 21 20 22 23 22 17 16 16 16 14 13 12 6 7 10 12 16 17 16 14 12 13 12 11 10 10 9 8 7 4 4 6 7 7 10 8 10
17 19 22 23 24 25 25 21 20 21 21 21 14 12 15 14 16 14 8 10 5 1 0 2 5 5 5 2 2 9 7 3 6 4 2 4 4 3 4 6 7 9 9
17 19 20 21 23 24 25 22 19 19 17 18 15 14 10 4 4 12 10 8 8 7 9 14 14 18 16 13 7 11 3 10 6 7 5 5 4 5 3 3 3 5 7
19 19 20 20 22 22 24 20 17 16 16 13 11 12 13 13 11 14 11 9 8 7 9 11 13 17 13 15 14 9 8 5 6 7 5 4 5 4 3 3 3 3 4
20 20 19 20 19 20 21 19 13 13 14 12 10 9 10 11 12 12 13 11 11 10 11 13 14 12 14 12 9 6 6 7 6 5 6 6 5 4 3 4 4 3 3
21 19 19 20 20 20 20 19 13 10 11 11 9 10 12 12 11 13 12 11 13 12 13 13 13 15 14 10 11 10 8 9 7 7 7 9 8 5 4 4 4 3 4
18 18 18 18 19 20 19 20 12 8 7 8 9 9 9 10 13 13 15 12 13 15 14 14 15 15 14 13 11 11 10 8 9 9 10 12 8 8 6 4 6 5 4
16 17 17 17 18 19 19 18 14 7 7 7 6 11 9 11 13 12 18 15 14 14 15 14 13 14 14 11 12 10 9 9 11 11 12 11 10 8 8 7 7 5 5
13 15 16 18 18 20 19 19 17 4 4 6 8 9 13 12 12 14 13 15 16 12 14 14 15 16 13 11 11 10 9 11 12 11 10 9 9 8 9 7 7 7 7
12 14 16 17 19 21 20 20 14 3 5 7 10 11 10 12 12 11 14 14 16 14 16 16 15 15 14 11 13 12 10 9 10 10 9 9 9 9 7 7 8 10 8
13 15 17 18 19 21 20 19 7 6 7 9 10 10 12 11 13 10 13 15 14 16 15 14 16 16 13 20 19 11 9 8 10 7 5 3 5 8 6 7 7 9 9
15 16 16 17 17 19 19 14 10 8 8 10 10 11 12 13 13 13 13 14 16 15 14 14 15 16 17 23 19 15 7 9 7 6 7 6 6 12 13 15 14 10 7
15 15 13 15 16 16 14 9 9 10 11 12 13 13 13 13 12 14 15 13 12 13 12 12 13 15 15 22 19 11 8 9 9 10 10 10 11 15 16 15 14 13 12
13 13 11 14 14 13 9 6 10 12 13 13 13 12 12 13 12 14 13 11 11 12 11 12 13 14 15 22 22 13 10 10 9 7 9 11 12 19 20 15 14 15 14
13 13 13 12 12 10 6 7 8 11 13 12 11 10 10 11 12 12 11 10 10 11 8 12 13 17 14 23 24 20 9 10 8 9 11 7 14 19 20 15 14 13 14
15 9 10 10 11 7 6 9 9 10 9 10 11 12 12 12 13 13 10 10 11 10 10 12 12 13 16 17 22 22 11 11 10 10 10 10 20 21 20 18 12 15 17
11 8 8 8 8 6 8 10 10 9 10 11 13 13 12 10 11 14 11 10 10 11 11 11 10 10 13 19 20 20 18 18 11 11 10 12 23 21 21 16 21 20 16
7 6 8 8 9 10 10 10 10 10 12 14 14 14 14 12 12 13 11 9 12 10 9 9 9 10 10 11 21 20 19 17 11 10 13 17 18 17 14 16 18 15 10
7 7 9 10 11 10 11 11 11 11 13 13 13 13 13 12 13 11 10 11 10 10 9 8 9 10 10 12 12 12 11 15 12 13 10 12 11 12 12 11 11 10 10
7 9 10 11 12 11 12 11 10 11 12 13 12 12 11 13 13 13 11 11 13 12 9 10 9 10 10 11 15 15 11 11 12 13 8 8 10 10 11 11 11 11 11
11 12 12 12 12 12 12 11 10 12 12 11 10 9 8 8 7 9 10 19 18 18 19 19 13 8 14 17 19 18 13 14 13 8 9 11 11 12 13 13 13 12 13
Wind_Direction
353 1 357 351 347 346 336 335 311 282 241 232 231 225 224 221 222 223 222 219 212 205 204 203 206 199 221 224 232 232 226 245 235 265 259 254 247 250 249 249 248 244 241
353 358 2 358 351 344 341 332 324 307 279 241 237 235 231 232 228 223 220 217 212 209 203 202 203 191 190 200 206 209 216 230 231 228 241 265 249 235 233 240 239 247 256
1 0 1 1 356 353 344 335 329 322 299 278 246 237 237 240 231 223 219 215 211 207 210 213 202 193 203 212 192 190 203 205 214 222 236 241 238 256 243 219 233 237 251
0 0 359 357 357 354 345 339 331 322 311 295 257 236 233 234 239 240 227 222 209 206 205 218 214 206 207 205 195 183 207 196 214 200 215 251 275 280 266 245 223 230 257
5 2 358 353 355 350 348 343 336 326 321 306 283 234 232 239 245 242 238 215 188 201 213 213 214 212 210 218 197 186 195 203 197 212 208 231 251 259 263 281 264 281 277
6 360 358 355 355 355 348 348 342 331 331 319 292 254 238 231 245 239 220 198 189 210 220 216 216 214 219 230 211 200 183 201 189 222 221 219 222 230 242 250 272 284 295
4 356 356 357 357 353 347 348 342 332 338 325 314 271 245 235 245 245 213 200 192 126 187 229 45 27 359 283 151 104 92 79 84 99 84 69 56 24 325 279 272 271 286
0 356 353 352 350 351 348 344 344 337 340 346 1 9 337 283 357 37 69 83 92 93 98 95 81 67 51 8 70 58 72 69 77 82 69 74 45 26 19 345 321 282 273
353 351 348 351 345 345 350 348 341 340 346 345 4 28 46 58 63 62 67 75 83 80 78 89 96 97 94 50 351 31 60 83 85 79 87 108 85 56 22 3 339 313 291
343 345 346 348 342 344 342 345 351 348 341 352 16 32 55 67 69 73 65 63 64 57 66 79 74 82 84 108 99 57 62 75 72 83 82 76 71 73 51 26 21 352 314
339 344 342 342 341 341 339 339 354 352 353 357 24 41 58 51 64 70 66 69 71 67 67 76 79 77 80 83 97 98 85 83 84 78 73 68 55 47 42 30 34 7 327
330 338 338 340 340 340 340 336 348 345 13 5 21 38 67 65 64 78 76 67 73 81 74 77 76 77 73 79 81 84 85 84 82 67 61 50 40 28 22 15 34 344 335
332 330 339 343 342 340 336 335 334 338 360 32 46 44 52 76 83 67 74 68 65 61 63 63 65 79 85 80 83 86 89 79 66 53 54 48 33 23 1 4 360 333 339
331 332 339 342 343 342 337 335 327 332 36 67 65 72 73 59 57 80 81 86 70 59 69 61 63 50 55 69 70 65 66 62 56 48 46 49 40 11 360 4 346 337 337
329 341 342 343 344 342 342 342 318 85 84 71 75 72 69 86 69 68 78 75 78 62 61 64 55 59 51 33 41 45 40 62 67 48 25 36 26 34 1 353 339 337 328
338 345 346 347 347 344 347 340 9 51 84 90 87 84 87 89 85 59 62 62 74 72 59 60 59 55 49 37 28 30 44 50 50 46 40 1 23 1 9 335 325 306 306
337 344 344 346 348 348 352 2 30 49 70 78 76 74 78 74 76 74 69 63 61 69 69 61 56 52 47 33 22 357 44 43 35 20 9 350 31 27 353 345 307 277 274
334 337 342 341 348 356 359 22 49 61 66 70 70 68 71 76 71 78 70 68 70 68 77 71 65 58 46 33 10 325 38 32 22 7 4 358 359 30 352 324 314 310 310
327 328 338 341 351 354 12 55 68 77 76 72 71 72 74 78 74 70 75 77 80 70 65 59 54 69 54 38 20 4 30 24 21 5 24 5 356 358 345 325 322 318 311
325 330 341 350 2 356 37 69 76 83 89 90 87 84 80 79 73 70 64 65 69 79 77 66 60 45 53 35 30 12 24 12 4 7 4 52 10 344 341 335 328 325 332
318 354 349 10 1 23 72 79 80 74 77 84 81 77 72 71 71 72 64 67 69 70 70 62 52 50 47 39 26 26 16 2 359 2 350 346 354 340 340 335 336 333 318
323 2 13 20 20 45 85 86 71 66 73 74 72 69 67 68 68 72 67 68 69 66 55 55 51 39 34 36 20 19 18 5 355 353 343 341 339 336 335 330 336 325 307
349 14 30 53 51 64 84 81 75 75 75 74 70 66 64 63 65 68 68 63 55 54 51 46 44 39 30 21 16 9 7 4 346 351 329 331 331 330 324 333 325 324 332
20 50 80 81 77 72 75 79 83 81 79 77 75 74 72 74 72 66 54 49 46 44 43 41 38 33 26 16 7 359 356 354 353 340 344 339 338 335 331 331 336 335 333
79 91 99 95 85 81 78 78 80 85 83 80 78 78 75 69 66 56 57 64 54 39 37 34 36 22 19 13 4 357 354 353 342 314 338 348 350 346 344 341 340 337 336
103 102 97 92 86 82 77 72 72 82 86 85 75 69 73 72 80 86 79 66 65 56 52 46 32 29 23 9 3 357 351 351 338 346 357 356 354 350 344 340 337 337 337